Flag for Spain Weather past 2 weeks in Madrid, Spain

Now
70 °F

Scattered clouds.


Feels Like: 70 °F
Forecast: 67 / 88 °F
Wind: 2 mph from North

Location: Madrid / Cuatro Vientos

Current Time: Aug 30, 2015 at 10:11:04 PM

Latest Report: Aug 30, 2015 at 9:30 PM


Visibility: N/A

Pressure: 30.07 "Hg (27.86 "Hg at 658m altitude)

Humidity: 100%

Dew point: 70 °F

Location of MadridLocation

Historic Weather in Madrid — Graph

°F

Madrid temperature yesterday

Maximum temperature yesterday: 97 °F (at 5:30 PM)
Minimum temperature yesterday: 72 °F (at 7:00 AM)
Average temperature yesterday: 87 °F

Past Weeks' High & Low Weather Summary

 TemperatureHumidityPressure
High97 °F (Aug 20, 5:30 PM)100% (Aug 30, 7:30 PM)30.21 "Hg (Aug 30, 7:30 PM)
Low57 °F (Aug 25, 7:00 AM)12% (Aug 20, 7:30 PM)29.86 "Hg (Aug 17, 6:00 PM)
Average80 °F35%30.04 "Hg
* Reported Aug 15 9:00 PM — Aug 30 9:00 PM, Madrid, Weather by CustomWeather, © 2015

Note: Actual official high and low records may vary slightly from our data, if they occured in-between our weather recording intervals... More about our weather records

Advertising

Madrid weather history for previous 24 hours

 ConditionsComfort  
Time TempWeatherWind HumidityBarometerVisibility
9:00 PM
Sun, Aug 30
70 °FScattered clouds.1 mph94%30.07 "HgN/A
8:30 PM68 °FLight rain. Scattered clouds.6 mph100%30.04 "HgN/A
8:00 PM68 °FLight rain. Scattered clouds.5 mph100%30.01 "HgN/A
7:30 PM66 °FThunderstorms. Broken clouds.14 mph100%30.09 "HgN/A
7:00 PM86 °FThunderstorms. Scattered clouds.33 mph40%30.01 "Hg2 mi
6:50 PM91 °FThundershowers. Scattered clouds.9 mph24%29.98 "HgN/A
6:30 PM91 °FScattered clouds.9 mph24%29.98 "HgN/A
6:00 PM95 °FPassing clouds.8 mph22%29.95 "HgN/A
5:30 PM97 °FPassing clouds.8 mph22%29.98 "HgN/A
5:00 PM97 °FPassing clouds.3 mph22%30.01 "HgN/A
4:30 PM95 °FPassing clouds.6 mph23%30.01 "HgN/A
4:00 PM95 °FPassing clouds.6 mph25%30.04 "HgN/A
3:30 PM93 °FPassing clouds.7 mph26%30.04 "HgN/A
3:00 PM91 °FPassing clouds.9 mph30%30.07 "HgN/A
2:30 PM90 °FSunny.6 mph31%30.07 "Hg10 mi
2:00 PM88 °FPassing clouds.8 mph35%30.07 "HgN/A
1:30 PM88 °FSunny.2 mph35%30.09 "Hg10 mi
1:00 PM86 °FSunny.5 mph38%30.09 "Hg10 mi
12:30 PM84 °FPassing clouds.3 mph40%30.09 "HgN/A
12:00 PM81 °FSunny.7 mph45%30.09 "Hg10 mi
11:30 AM81 °FPassing clouds.5 mph45%30.09 "HgN/A
11:00 AM79 °FPassing clouds.6 mph48%30.12 "HgN/A
10:30 AM77 °FPassing clouds.7 mph51%30.09 "HgN/A
10:00 AM77 °FPassing clouds.5 mph42%30.09 "HgN/A
9:30 AM75 °FSunny.3 mph50%30.12 "Hg10 mi
9:00 AM72 °FPassing clouds.5 mph57%30.09 "HgN/A
8:30 AM72 °FClear.2 mph47%30.09 "Hg10 mi
8:00 AM72 °FPassing clouds.5 mph47%30.09 "HgN/A
7:30 AM72 °FPassing clouds.5 mph47%30.09 "HgN/A
7:00 AM72 °FPassing clouds.6 mph50%30.09 "HgN/A
10:00 PM
Sat, Aug 29
86 °FPassing clouds.9 mph25%30.04 "HgN/A
Weather by CustomWeather, © 2015

See weather overviewHow to use our weather pages